Regional Weather Roundup
Issued by NWS Green Bay, WI

Home | Current Version | Previous Version | Graphics & Text | Print | Product List | Glossary Off
Versions: 1 2 3 4 5 6 7 8 9 10 11 12 13 14 15 16 17 18 19 20 21 22 23 24 25 26 27 28 29 30 31 32 33 34 35 36 37 38 39 40 41 42 43 44 45 46 47 48 49 50

000
ASUS43 KGRB 140800
RWRGRB

NORTH-CENTRAL AND NORTHEAST WISCONSIN REGIONAL WEATHER ROUNDUP
NATIONAL WEATHER SERVICE GREEN BAY WI
200 AM CST SUN FEB 14 2016

WIZ005-009-010>012-018-019-140900-
NORTH CENTRAL WISCONSIN

CITY           SKY/WX    TMP DP  RH WIND       PRES   REMARKS
IRONWOOD       CLOUDY    -2 N/A N/A S10       30.26F WCI -19
MANITOWISH WTR NOT AVBL
ARBOR VITAE    NOT AVBL
EAGLE RIVER    NOT AVBL
LAND O LAKES   NOT AVBL
RHINELANDER    CLOUDY   -15 -21  74 CALM      30.29F
PHILLIPS       NOT AVBL
ANTIGO         NOT AVBL
TOMAHAWK       NOT AVBL
MERRILL        NOT AVBL
$$

WIZ013-073-140900-
NORTHEAST WISCONSIN

CITY           SKY/WX    TMP DP  RH WIND       PRES   REMARKS
IRON MOUNTAIN  PTCLDY   -16 -22  74 CALM      30.34F
MARINETTE      CLOUDY    -8 -11  84 CALM      30.41F
$$

WIZ017-030-035>037-045-140900-
CENTRAL WISCONSIN

CITY           SKY/WX    TMP DP  RH WIND       PRES   REMARKS
MEDFORD        NOT AVBL
WAUSAU         CLOUDY   -11 -17  75 CALM      30.33F
MOSINEE        NOT AVBL
MARSHFIELD     CLOUDY    -6 -14  68 E5        30.31F WCI -17
WISC RAPIDS    CLOUDY   -10 -16  74 CALM      30.37F
STEVENS POINT  NOT AVBL
WAUPACA        NOT AVBL
SHAWANO        NOT AVBL
CLINTONVILLE   NOT AVBL
WAUTOMA        NOT AVBL
$$

WIZ038-039-048-051-140900-
FOX VALLEY

CITY           SKY/WX    TMP DP  RH WIND       PRES   REMARKS
NWS GREEN BAY  PTCLDY    -7 -12  79 CALM      30.43F
APPLETON       NOT AVBL
OSHKOSH        CLOUDY    -4 -11  72 S3        30.41F
FOND DU LAC    CLOUDY    -3 -10  72 S3        30.41F
$$

WIZ022-050-052-140900-
EAST CENTRAL WISCONSIN

CITY           SKY/WX    TMP DP  RH WIND       PRES   REMARKS
EPHRAIM        NOT AVBL
STURGEON BAY   CLOUDY     0  -9  65 CALM      30.44S
MANITOWOC      NOT AVBL
SHEBOYGAN      CLOUDY    -3  -9  75 W3        30.44S
$$

LMZ563-521-522-541>543-140900-
LAKESHORE

STATION/POSITION TIME  TEMP    WIND        PRES    VSBY  WAVE
                       AIR SEA DIR/SP/G                  HT/PER
                 (UTC) (F)     (DEG/KT/KT) (MB)    (MI)  (FT/S)
SHEBOYGAN LKSHOR 0700    6     260/  7/  8 1032.9F
KEWAUNEE LKSHORE 0700    1     300/  6/  7 1030.0F
ALGOMA MARINA    0711             CALM       N/A
SISTER BAY LKSHO 0720    1        CALM       N/A
CHAMBERS ISLAND  0700    0     170/  4/  5 1030.1S
MENOMINEE LKSHOR 0700    1     230/  3     1029.5S
$$



USA.gov is the U.S. government's official web portal to all federal, state and local government web resources and services.